DW6193 Weather Reports


time (UTC)temp
C
wind
direction
speed
KPH
gust
KPH
rain 1hr
cm
rain 24hr
cm
rain mn
cm
humidity
%
barometer
mb
20260506051027 15 291 8.0 14.5 0.00 0.00 0.00 1017.9
20260506050528 15 288 1.6 9.7 0.00 0.00 0.00 1017.9
20260506045027 15 170 1.6 6.4 0.00 0.00 0.00 1017.7
20260506044539 15 252 3.2 6.4 0.00 0.00 0.00 1017.8
20260506044029 15 0 1.6 6.4 0.00 0.00 0.00 1017.7
20260506043526 15 183 0.0 3.2 0.00 0.00 0.00 1017.7
20260506043109 15 39 0.0 3.2 0.00 0.00 0.00 1017.7
20260506042526 15 302 1.6 3.2 0.00 0.00 0.00 1017.6
20260506042025 15 311 0.0 3.2 0.00 0.00 0.00 1017.4
20260506041539 15 227 1.6 3.2 0.00 0.00 0.00 1017.5
20260506041027 14 183 1.6 6.4 0.00 0.00 0.00 1017.4
20260506040526 14 227 1.6 6.4 0.00 0.00 0.00 1017.5
20260506040038 14 250 3.2 6.4 0.00 0.00 0.00 1017.4
20260506035527 15 254 3.2 6.4 0.00 0.00 0.00 1017.3
20260506035026 15 344 1.6 6.4 0.00 0.00 0.00 1017.3
20260506034537 15 278 3.2 6.4 0.00 0.00 0.00 1017.2
20260506034027 15 252 3.2 6.4 0.00 0.00 0.00 1017.1
20260506033528 15 277 0.0 3.2 0.00 0.00 0.00 1017.0
20260506033039 15 227 1.6 3.2 0.00 0.00 0.00 1017.0
20260506032524 16 283 0.0 3.2 0.00 0.00 0.00 1017.0
20260506032024 16 0 0.0 3.2 0.00 0.00 0.00 1017.0
20260506031539 16 0 0.0 3.2 0.00 0.00 0.00 1016.9
20260506031028 16 295 0.0 4.8 0.00 0.00 0.00 1016.9
20260506030527 15 295 1.6 6.4 0.00 0.00 0.00 1016.9
20260506030037 15 0 1.6 6.4 0.00 0.00 0.00 1016.8
20260506025529 15 259 1.6 4.8 0.00 0.00 0.00 1016.8
20260506025026 15 292 1.6 4.8 0.00 0.00 0.00 1016.8
20260506024551 15 291 1.6 6.4 0.00 0.00 0.00 1016.8
20260506024026 16 286 0.0 6.4 0.00 0.00 0.00 1016.7
20260506023526 15 268 3.2 6.4 0.00 0.00 0.00 1016.6
20260506023044 16 281 1.6 6.4 0.00 0.00 0.00 1016.5
20260506022530 16 286 0.0 4.8 0.00 0.00 0.00 1016.5
20260506022027 16 0 0.0 6.4 0.00 0.00 0.00 1016.7
20260506021538 16 0 0.0 6.4 0.00 0.00 0.00 1016.6
20260506021026 16 0 1.6 8.0 0.00 0.00 0.00 1016.7
20260506020526 16 283 1.6 9.7 0.00 0.00 0.00 1016.6
20260506020040 16 283 1.6 9.7 0.00 0.00 0.00 1016.6
20260506015526 16 277 3.2 9.7 0.00 0.00 0.00 1016.7
20260506015029 16 292 1.6 6.4 0.00 0.00 0.00 1016.7
20260506014537 16 295 0.0 6.4 0.00 0.00 0.00 1016.7
20260506014026 16 0 1.6 6.4 0.00 0.00 0.00 1016.6
20260506013526 16 291 1.6 8.0 0.00 0.00 0.00 1016.5
20260506013038 16 210 1.6 8.0 0.00 0.00 0.00 1016.6
20260506012524 16 284 1.6 8.0 0.00 0.00 0.00 1016.6
20260506012026 16 0 1.6 8.0 0.00 0.00 0.00 1016.6
20260506011602 16 309 3.2 8.0 0.00 0.00 0.00 1016.5
20260506011026 17 311 1.6 8.0 0.00 0.00 0.00 1016.7
20260506010526 17 268 0.0 8.0 0.00 0.00 0.00 1016.6
20260506010037 17 268 1.6 8.0 0.00 0.00 0.00 1016.6
20260506005525 17 311 1.6 8.0 0.00 0.00 0.00 1016.5
20260506005025 17 268 1.6 4.8 0.00 0.00 0.00 1016.7
20260506004552 17 0 0.0 4.8 0.00 0.00 0.00 1016.6
20260506004026 17 252 0.0 4.8 0.00 0.00 0.00 1016.7
20260506003524 17 243 1.6 6.4 0.00 0.00 0.00 1016.7
20260506003036 17 64 1.6 6.4 0.00 0.00 0.00 1016.6
20260506002524 18 49 0.0 4.8 0.00 0.00 0.00 1016.6
20260506002024 17 0 1.6 4.8 0.00 0.00 0.00 1016.8
20260506001544 18 141 0.0 4.8 0.00 0.00 0.00 1016.7
20260506001027 17 134 1.6 6.4 0.00 0.00 0.00 1016.8
20260506000527 17 0 0.0 9.7 0.00 0.00 0.00 1016.9
20260506000108 17 205 1.6 9.7 0.00 0.00 0.00 1017.1
20260505235527 17 305 1.6 6.4 0.00 0.00 0.00 1017.0
20260505235027 17 207 1.6 6.4 0.00 0.00 0.00 1017.1
20260505234544 17 268 1.6 6.4 0.00 0.00 0.00 1016.9
20260505234027 17 170 0.0 3.2 0.00 0.00 0.00 1017.0
20260505233528 17 183 0.0 6.4 0.00 0.00 0.00 1017.1
20260505233037 17 259 1.6 6.4 0.00 0.00 0.00 1017.0
20260505232526 17 0 1.6 8.0 0.00 0.00 0.00 1017.1
20260505232024 18 247 1.6 8.0 0.00 0.00 0.00 1017.1
20260505231537 17 252 1.6 8.0 0.00 0.00 0.00 1017.0
20260505231024 18 299 1.6 8.0 0.00 0.00 0.00 1017.0
20260505230524 18 0 1.6 8.0 0.00 0.00 0.00 1017.1
20260505230058 20 286 1.6 8.0 0.00 0.00 0.00 1017.0
20260505225530 19 261 1.6 8.0 0.00 0.00 0.00 1017.0
20260505225024 20 322 1.6 8.0 0.00 0.00 0.00 1017.0
20260505224541 21 250 1.6 8.0 0.00 0.00 0.00 1017.0
20260505224023 22 76 1.6 9.7 0.00 0.00 0.00 1017.2
20260505223525 21 157 1.6 9.7 0.00 0.00 0.00 1017.2
20260505223039 21 0 1.6 6.4 0.00 0.00 0.00 1017.1
20260505222529 22 268 1.6 6.4 0.00 0.00 0.00 1017.2
20260505222025 22 322 1.6 6.4 0.00 0.00 0.00 1017.2
20260505221536 21 227 1.6 6.4 0.00 0.00 0.00 1017.2
20260505221024 21 141 1.6 8.0 0.00 0.00 0.00 1017.3
20260505220523 21 0 1.6 8.0 0.00 0.00 0.00 1017.3
20260505220039 20 295 1.6 8.0 0.00 0.00 0.00 1017.4
20260505215523 21 355 1.6 8.0 0.00 0.00 0.00 1017.4
20260505215023 21 286 1.6 9.7 0.00 0.00 0.00 1017.3
20260505214542 22 183 1.6 11.3 0.00 0.00 0.00 1017.3
20260505214024 25 243 1.6 11.3 0.00 0.00 0.00 1017.4
20260505213525 25 71 1.6 8.0 0.00 0.00 0.00 1017.3
20260505213039 25 283 1.6 8.0 0.00 0.00 0.00 1017.5
20260505212527 25 114 1.6 9.7 0.00 0.00 0.00 1017.5
20260505212027 24 183 1.6 9.7 0.00 0.00 0.00 1017.6
20260505211540 23 283 1.6 11.3 0.00 0.00 0.00 1017.5
20260505211027 21 286 3.2 11.3 0.00 0.00 0.00 1017.7
20260505210528 25 55 1.6 12.9 0.00 0.00 0.00 1017.7
20260505210036 23 124 3.2 12.9 0.00 0.00 0.00 1017.8
20260505205525 23 141 1.6 11.3 0.00 0.00 0.00 1017.7
20260505205028 22 268 1.6 11.3 0.00 0.00 0.00 1017.7
20260505204545 20 334 1.6 11.3 0.00 0.00 0.00 1017.9
20260505204026 17 295 3.2 11.3 0.00 0.00 0.00 1017.8
20260505203525 19 320 3.2 11.3 0.00 0.00 0.00 1017.8
20260505203052 21 284 1.6 8.0 0.00 0.00 0.00 1017.8
20260505202527 20 0 1.6 6.4 0.00 0.00 0.00 1017.9
20260505202027 19 356 1.6 6.4 0.00 0.00 0.00 1017.9
20260505201540 18 124 1.6 6.4 0.00 0.00 0.00 1018.0
20260505201029 17 355 1.6 6.4 0.00 0.00 0.00 1017.9
20260505200527 18 292 1.6 8.0 0.00 0.00 0.00 1017.9
20260505200038 18 239 0.0 8.0 0.00 0.00 0.00 1017.9
20260505195526 18 355 0.0 4.8 0.00 0.00 0.00 1017.9
20260505195026 18 0 0.0 4.8 0.00 0.00 0.00 1018.0
20260505194550 17 131 1.6 4.8 0.00 0.00 0.00 1018.0
20260505194026 17 124 0.0 4.8 0.00 0.00 0.00 1017.9
20260505193524 17 227 1.6 4.8 0.00 0.00 0.00 1018.1
20260505193038 17 141 0.0 3.2 0.00 0.00 0.00 1018.0
20260505192526 17 116 0.0 3.2 0.00 0.00 0.00 1017.9
20260505192024 16 99 0.0 4.8 0.00 0.00 0.00 1018.1
20260505191553 16 141 0.0 4.8 0.00 0.00 0.00 1018.0
20260505191027 16 268 1.6 4.8 0.00 0.00 0.00 1018.0
20260505190531 17 49 1.6 4.8 0.00 0.00 0.00 1018.1
20260505190041 16 109 0.0 6.4 0.00 0.00 0.00 1018.2
20260505185527 15 0 1.6 6.4 0.00 0.00 0.00 1018.2
20260505185029 16 283 0.0 6.4 0.00 0.00 0.00 1018.0
20260505184538 16 55 0.0 3.2 0.00 0.00 0.00 1018.0
20260505184025 16 151 0.0 3.2 0.00 0.00 0.00 1018.1
20260505183526 16 255 0.0 3.2 0.00 0.00 0.00 1018.2
20260505183043 16 39 0.0 3.2 0.00 0.00 0.00 1018.1
20260505182527 16 0 0.0 3.2 0.00 0.00 0.00 1018.1
20260505182027 16 151 0.0 4.8 0.00 0.00 0.00 1017.9
20260505181538 15 158 0.0 6.4 0.00 0.00 0.00 1018.0
20260505181028 15 239 1.6 6.4 0.00 0.00 0.00 1018.0
20260505180526 16 243 0.0 3.2 0.00 0.00 0.00 1018.0
20260505180049 16 0 0.0 4.8 0.00 0.00 0.00 1018.0
20260505175526 16 210 0.0 4.8 0.00 0.00 0.00 1017.9
20260505175026 16 76 0.0 4.8 0.00 0.00 0.00 1017.9
20260505174540 16 0 0.0 4.8 0.00 0.00 0.00 1017.9
20260505174029 16 124 0.0 3.2 0.00 0.00 0.00 1017.9
20260505173531 15 0 0.0 3.2 0.00 0.00 0.00 1017.9
20260505173036 15 141 0.0 3.2 0.00 0.00 0.00 1017.9
20260505172526 15 0 0.0 3.2 0.00 0.00 0.00 1017.8
20260505172027 14 268 0.0 4.8 0.00 0.00 0.00 1017.8
20260505171538 14 227 0.0 4.8 0.00 0.00 0.00 1017.8
20260505171027 13 305 0.0 3.2 0.00 0.00 0.00 1017.8
20260505170525 13 201 1.6 6.4 0.00 0.00 0.00 1017.8
20260505170037 13 227 1.6 6.4 0.00 0.00 0.00 1017.7
20260505165523 13 252 1.6 6.4 0.00 0.00 0.00 1017.7
20260505165023 14 295 0.0 6.4 0.00 0.00 0.00 1017.8
20260505164543 14 302 0.0 3.2 0.00 0.00 0.00 1017.7
20260505164024 14 0 0.0 4.8 0.00 0.00 0.00 1017.7
20260505163527 13 183 1.6 6.4 0.00 0.00 0.00 1017.7
20260505163037 13 230 0.0 6.4 0.00 0.00 0.00 1017.5
20260505162526 13 248 1.6 6.4 0.00 0.00 0.00 1017.5
20260505162028 13 183 1.6 6.4 0.00 0.00 0.00 1017.5
20260505161537 13 268 0.0 4.8 0.00 0.00 0.00 1017.5
20260505161027 13 0 0.0 8.0 0.00 0.00 0.00 1017.4
20260505160529 12 201 1.6 11.3 0.00 0.00 0.00 1017.5
20260505153036 11 286 6.4 14.5 0.00 0.00 0.00 1017.3
20260505152524 11 264 6.4 14.5 0.00 0.00 0.00 1017.3
20260505152028 11 282 6.4 14.5 0.00 0.00 0.00 1017.4
20260505151540 11 268 9.7 14.5 0.00 0.00 0.00 1017.3
20260505151027 11 309 8.0 12.9 0.00 0.00 0.00 1017.3
20260505150527 11 278 8.0 12.9 0.00 0.00 0.00 1017.3
20260505140527 10 283 6.4 11.3 0.00 0.00 0.00 1016.5
20260505125028 11 243 4.8 12.9 0.00 0.00 0.00 1016.1
20260505124559 11 261 6.4 12.9 0.00 0.00 0.00 1016.2
20260505124025 11 236 6.4 12.9 0.00 0.00 0.00 1016.1
20260505123526 11 285 3.2 12.9 0.00 0.00 0.00 1016.0
20260505123049 11 279 6.4 14.5 0.00 0.00 0.00 1016.2
20260505122526 11 280 6.4 14.5 0.00 0.00 0.00 1016.1
20260505122027 11 261 3.2 11.3 0.00 0.00 0.00 1016.1
20260505121607 11 268 4.8 9.7 0.00 0.00 0.00 1016.2
20260505121027 12 286 1.6 6.4 0.00 0.00 0.00 1016.1
20260505120526 12 0 0.0 6.4 0.00 0.00 0.00 1016.1
20260505120037 12 255 1.6 6.4 0.00 0.00 0.00 1016.1
20260505115526 12 277 1.6 9.7 0.00 0.00 0.00 1016.0
20260505115026 12 268 1.6 9.7 0.00 0.00 0.00 1016.0
20260505114536 12 268 1.6 8.0 0.00 0.00 0.00 1016.1
20260505114027 11 290 4.8 8.0 0.00 0.00 0.00 1016.1
20260505113526 12 259 3.2 6.4 0.00 0.00 0.00 1016.1
20260505113046 12 286 0.0 8.0 0.00 0.00 0.00 1016.1
20260505112530 12 283 1.6 8.0 0.00 0.00 0.00 1016.0
20260505112024 12 302 3.2 8.0 0.00 0.00 0.00 1016.0
20260505111540 12 0 1.6 9.7 0.00 0.00 0.00 1016.1
20260505111026 12 243 3.2 9.7 0.00 0.00 0.00 1016.0
20260505110526 12 227 1.6 6.4 0.00 0.00 0.00 1015.9
20260505102026 12 218 8.0 14.5 0.00 0.00 0.00 1015.6
20260505101541 12 292 6.4 12.9 0.00 0.00 0.00 1015.5
20260505101026 12 221 4.8 12.9 0.00 0.00 0.00 1015.7
20260505100527 12 254 4.8 12.9 0.00 0.00 0.00 1015.6
20260505100049 12 292 4.8 9.7 0.00 0.00 0.00 1015.6
20260505095525 12 172 3.2 9.7 0.00 0.00 0.00 1015.6
20260505095025 12 200 4.8 9.7 0.00 0.00 0.00 1015.5
20260505094542 12 268 3.2 9.7 0.00 0.00 0.00 1015.6
20260505094027 12 213 3.2 11.3 0.00 0.00 0.00 1015.4
20260505093526 12 243 1.6 12.9 0.00 0.00 0.00 1015.4
20260505093038 12 268 6.4 12.9 0.00 0.00 0.00 1015.4
20260505092527 12 268 3.2 12.9 0.00 0.00 0.00 1015.4
20260505092026 12 219 4.8 12.9 0.00 0.00 0.00 1015.3
20260505091549 12 274 4.8 14.5 0.00 0.00 0.00 1015.4
20260505091025 12 276 4.8 16.1 0.00 0.00 0.00 1015.2
20260505090526 12 183 6.4 17.7 0.00 0.00 0.00 1015.2
20260505090055 12 290 6.4 17.7 0.00 0.00 0.00 1015.2
20260505085526 12 255 9.7 17.7 0.00 0.00 0.00 1015.1
20260505085030 12 236 6.4 19.3 0.00 0.00 0.00 1015.2
20260505084538 12 280 9.7 19.3 0.00 0.00 0.00 1015.2
20260505084024 12 283 8.0 17.7 0.00 0.00 0.00 1015.1
20260505083525 13 286 6.4 17.7 0.00 0.00 0.00 1015.1
20260505083048 13 297 8.0 17.7 0.00 0.00 0.00 1015.2
20260505082527 13 267 8.0 17.7 0.00 0.00 0.00 1015.1
20260505082027 13 259 8.0 22.5 0.00 0.00 0.00 1015.0
20260505081543 13 290 6.4 22.5 0.00 0.00 0.00 1014.9
20260505081027 13 283 9.7 22.5 0.00 0.00 0.00 1015.0
20260505080531 13 173 6.4 20.9 0.00 0.00 0.00 1014.9
20260505080045 13 273 8.0 20.9 0.00 0.00 0.00 1014.9
20260505075528 13 292 8.0 22.5 0.00 0.00 0.00 1014.9
20260505075029 13 268 11.3 22.5 0.00 0.00 0.00 1014.8
20260505074539 13 298 6.4 19.3 0.00 0.00 0.00 1014.7
20260505074029 13 267 8.0 19.3 0.00 0.00 0.00 1014.8
20260505073524 14 290 6.4 19.3 0.00 0.00 0.00 1014.7
20260505073053 14 297 8.0 19.3 0.00 0.00 0.00 1014.8
20260505072526 14 286 8.0 16.1 0.00 0.00 0.00 1014.5
20260505072027 14 291 6.4 20.9 0.00 0.00 0.00 1014.6
20260505071543 14 298 8.0 20.9 0.00 0.00 0.00 1014.5
20260505071026 15 305 4.8 16.1 0.00 0.00 0.00 1014.4
20260505070527 15 276 6.4 16.1 0.00 0.00 0.00 1014.3
20260505070040 15 286 3.2 12.9 0.00 0.00 0.00 1014.4
20260505065527 15 274 1.6 16.1 0.00 0.00 0.00 1014.3
20260505065026 15 274 1.6 16.1 0.00 0.00 0.00 1014.2
20260505064536 15 301 4.8 14.5 0.00 0.00 0.00 1014.0
20260505064027 16 295 3.2 16.1 0.00 0.00 0.00 1013.9
20260505063526 16 286 4.8 16.1 0.00 0.00 0.00 1013.9
20260505063046 17 252 1.6 9.7 0.00 0.00 0.00 1013.8
20260505062526 16 201 1.6 11.3 0.00 0.00 0.00 1013.8
20260505062031 16 276 3.2 16.1 0.00 0.00 0.00 1013.8
20260505061546 16 268 4.8 16.1 0.00 0.00 0.00 1013.7
20260505061031 16 288 8.0 20.9 0.00 0.00 0.00 1013.5
20260505060527 17 284 8.0 22.5 0.00 0.00 0.00 1013.7